リニア彗星

252P/LINEAR (2010)

English version
Home page
Updated on July 21, 2011

---------------------------------------------------------------------

・ プロフィール

符号 252P/2011 L5
検出日 2011年6月9日
検出光度 22.7等
検出者 J. V. Scotti (Spacewatch)

・ 軌道要素

Epoch 2010 Nov. 20.0 TT = JDT 2455520.5
T 2010 Nov. 13.69960 TT                                 MPC
q   1.0001207            (2000.0)            P               Q
n   0.18447342     Peri.  343.30056     -0.99415286     -0.10235523
a   3.0561889      Node   190.99715     +0.10753063     -0.96750847
e   0.6727556      Incl.   10.38969     -0.00986207     -0.23119423
P   5.34
From 146 observations 2000 Apr. 7-2011 June 10, mean residual 0".71.

・ 光度変化

        m1 = 17.0 + 5 logΔ + 10.0 log r

---------------------------------------------------------------------

軌道要素はM.P.E.C. 2011-L41に掲載されたものです。
光度グラフはComet for Windowsで作成したものです。

---------------------------------------------------------------------

Copyright(C) Seiichi Yoshida (comet@aerith.net). All rights reserved.